Alamogordo, NM

7:13 AM MST on February 24, 2018 (GMT -0700)
Alamogordo-White Sands Regional

Weather History for KALM - December, 2012

Change the Weather History Date:

Thursday, December 27, 2012

  Actual Average Record
Temperature  
Mean Temperature 42 °F -  
Max Temperature 53 °F 53 °F 74 °F (1980)
Min Temperature 32 °F 29 °F 6 °F (1987)
Degree Days  
Heating Degree Days 22    
Moisture  
Dew Point 14 °F    
Average Humidity 33    
Maximum Humidity 60    
Minimum Humidity 19    
Precipitation  
Precipitation 0.00 in - - ()
Sea Level Pressure  
Sea Level Pressure 29.82 in    
Wind  
Wind Speed 10 mph (SSW)    
Max Wind Speed 22 mph    
Max Gust Speed 30 mph    
Visibility 10 miles    
Events      
Averages and records for this station are not official NWS values.
T = Trace of Precipitation, MM = Missing Value Source: NWS Daily Summary

Daily Weather History Graph

Daily Weather History Graph

Search for Another Location

Airport or City:

Trip Planner

Search our weather history database for the weather conditions in past years. The results will help you decide how hot, cold, wet, or windy it might be!

Date:

Astronomy

Dec. 27, 2012 Rise Set
Actual Time 7:05 AM MST 5:05 PM MST
Civil Twilight 6:38 AM MST 5:32 PM MST
Nautical Twilight 6:07 AM MST 6:03 PM MST
Astronomical Twilight 5:37 AM MST 6:33 PM MST
Moon 4:49 PM MST (12/27) 6:19 AM MST (12/27)
Length of Visible Light 10h 54m
Length of Day
10h 00m
Full, 100% of the Moon is Illuminated
Dec 27
Full
Dec 28
Full
Jan 4
Last Quarter
Jan 11
New
Jan 18
First Quarter

Hourly Weather History & Observations

Time (MST) Temp. Windchill Dew Point Humidity Pressure Visibility Wind Dir Wind Speed Gust Speed Precip Events Conditions
12:15 AM 44.6 °F 37.2 °F 14.0 °F 29% 29.82 in 10.0 mi SSE 17.3 mph - N/A   Clear
12:35 AM 44.6 °F 38.1 °F 14.0 °F 29% 29.82 in 10.0 mi SSE 13.8 mph - N/A   Clear
12:55 AM 44.6 °F 38.8 °F 14.0 °F 29% 29.82 in 10.0 mi SSE 11.5 mph - N/A   Clear
1:15 AM 39.2 °F 33.0 °F 12.2 °F 33% 29.83 in 10.0 mi South 9.2 mph - N/A   Clear
1:35 AM 37.4 °F 29.8 °F 12.2 °F 36% 29.83 in 10.0 mi South 11.5 mph - N/A   Clear
1:55 AM 39.2 °F 32.0 °F 14.0 °F 36% 29.84 in 10.0 mi South 11.5 mph - N/A   Clear
2:15 AM 39.2 °F 35.0 °F 12.2 °F 33% 29.84 in 10.0 mi SSE 5.8 mph - N/A   Clear
2:55 AM 39.2 °F 37.0 °F 10.4 °F 31% 29.84 in 10.0 mi SE 3.5 mph - N/A   Clear
3:15 AM 41.0 °F 36.4 °F 10.4 °F 29% 29.84 in 10.0 mi South 6.9 mph - N/A   Clear
3:35 AM 41.0 °F 38.0 °F 10.4 °F 29% 29.84 in 10.0 mi SE 4.6 mph - N/A   Clear
3:55 AM 39.2 °F 34.2 °F 10.4 °F 31% 29.83 in 10.0 mi ESE 6.9 mph - N/A   Clear
4:15 AM 37.4 °F 33.8 °F 10.4 °F 33% 29.83 in 10.0 mi SSE 4.6 mph - N/A   Clear
4:35 AM 37.4 °F 32.1 °F 10.4 °F 33% 29.82 in 10.0 mi SE 6.9 mph - N/A   Clear
4:55 AM 35.6 °F 29.9 °F 10.4 °F 35% 29.81 in 10.0 mi South 6.9 mph - N/A   Clear
5:15 AM 35.6 °F 31.7 °F 10.4 °F 35% 29.81 in 10.0 mi South 4.6 mph - N/A   Clear
5:35 AM 33.8 °F 28.6 °F 10.4 °F 38% 29.81 in 10.0 mi SSE 5.8 mph - N/A   Clear
5:55 AM 32.0 °F 28.7 °F 10.4 °F 41% 29.82 in 10.0 mi South 3.5 mph - N/A   Clear
6:15 AM 32.0 °F 27.5 °F 10.4 °F 41% 29.82 in 10.0 mi SSE 4.6 mph - N/A   Clear
6:35 AM 32.0 °F 25.6 °F 10.4 °F 41% 29.82 in 10.0 mi SSE 6.9 mph - N/A   Clear
6:55 AM 32.0 °F 24.2 °F 12.2 °F 44% 29.82 in 10.0 mi SSE 9.2 mph - N/A   Clear
7:15 AM 32.0 °F 24.2 °F 12.2 °F 44% 29.83 in 10.0 mi SSE 9.2 mph - N/A   Clear
7:35 AM 32.0 °F 25.6 °F 12.2 °F 44% 29.83 in 10.0 mi West 6.9 mph - N/A   Clear
7:55 AM 32.0 °F 27.5 °F 12.2 °F 44% 29.83 in 10.0 mi West 4.6 mph - N/A   Clear
8:15 AM 32.0 °F 26.4 °F 12.2 °F 44% 29.84 in 10.0 mi SW 5.8 mph - N/A   Clear
8:35 AM 32.0 °F 27.5 °F 14.0 °F 48% 29.83 in 10.0 mi SSW 4.6 mph - N/A   Clear
8:55 AM 39.2 °F 35.0 °F 14.0 °F 36% 29.84 in 10.0 mi South 5.8 mph - N/A   Clear
9:15 AM 42.8 °F 37.5 °F 14.0 °F 31% 29.85 in 10.0 mi South 9.2 mph - N/A   Clear
9:35 AM 46.4 °F 41.1 °F 14.0 °F 27% 29.85 in 10.0 mi SSE 11.5 mph - N/A   Clear
9:55 AM 48.2 °F - 14.0 °F 25% 29.85 in 10.0 mi South 9.2 mph - N/A   Clear
10:15 AM 50.0 °F - 14.0 °F 24% 29.85 in 10.0 mi South 12.7 mph - N/A   Clear
10:35 AM 50.0 °F - 12.2 °F 22% 29.85 in 10.0 mi South 6.9 mph - N/A   Clear
10:55 AM 50.0 °F - 10.4 °F 20% 29.84 in 10.0 mi SSW 9.2 mph - N/A   Clear
11:15 AM 51.8 °F - 12.2 °F 21% 29.84 in 10.0 mi SSW 9.2 mph 16.1 mph N/A   Clear
11:35 AM 50.0 °F - 10.4 °F 20% 29.83 in 10.0 mi SW 9.2 mph 16.1 mph N/A   Clear
11:55 AM 50.0 °F - 10.4 °F 20% 29.82 in 10.0 mi SW 10.4 mph 17.3 mph N/A   Clear
12:15 PM 50.0 °F - 10.4 °F 20% 29.80 in 10.0 mi SW 5.8 mph - N/A   Clear
12:35 PM 53.6 °F - 12.2 °F 19% 29.79 in 10.0 mi WSW 9.2 mph - N/A   Clear
12:55 PM 53.6 °F - 14.0 °F 21% 29.78 in 10.0 mi WSW 9.2 mph 16.1 mph N/A   Clear
1:15 PM 53.6 °F - 14.0 °F 21% 29.77 in 10.0 mi WSW 10.4 mph 16.1 mph N/A   Clear
1:35 PM 53.6 °F - 14.0 °F 21% 29.76 in 10.0 mi WSW 5.8 mph 21.9 mph N/A   Clear
1:55 PM 53.6 °F - 14.0 °F 21% 29.76 in 10.0 mi West 11.5 mph 19.6 mph N/A   Clear
2:15 PM 53.6 °F - 14.0 °F 21% 29.75 in 10.0 mi West 15.0 mph - N/A   Clear
2:35 PM 50.0 °F - 14.0 °F 24% 29.74 in 10.0 mi West 13.8 mph - N/A   Clear
2:55 PM 51.8 °F - 14.0 °F 22% 29.74 in 10.0 mi West 16.1 mph 23.0 mph N/A   Clear
3:15 PM 51.8 °F - 15.8 °F 24% 29.74 in 10.0 mi West 15.0 mph 20.7 mph N/A   Clear
3:35 PM 50.0 °F - 15.8 °F 26% 29.74 in 10.0 mi WSW 21.9 mph 29.9 mph N/A   Clear
3:55 PM 50.0 °F - 15.8 °F 26% 29.75 in 10.0 mi West 19.6 mph 26.5 mph N/A   Clear
4:15 PM 50.0 °F - 14.0 °F 24% 29.75 in 10.0 mi West 18.4 mph 25.3 mph N/A   Clear
4:35 PM 48.2 °F - 14.0 °F 25% 29.76 in 9.0 mi West 15.0 mph 24.2 mph N/A   Partly Cloudy
4:55 PM 48.2 °F - 15.8 °F 27% 29.77 in 10.0 mi West 15.0 mph 20.7 mph N/A   Scattered Clouds
5:15 PM 46.4 °F 39.5 °F 14.0 °F 27% 29.79 in 10.0 mi West 17.3 mph 21.9 mph N/A   Mostly Cloudy
6:15 PM 44.6 °F 39.7 °F 10.4 °F 25% 29.80 in 10.0 mi SW 9.2 mph - N/A   Partly Cloudy
6:35 PM 44.6 °F 39.7 °F 8.6 °F 23% 29.81 in 10.0 mi SSW 9.2 mph - N/A   Scattered Clouds
6:55 PM 46.4 °F 42.4 °F 8.6 °F 22% 29.82 in 10.0 mi SW 8.1 mph 21.9 mph N/A   Scattered Clouds
7:15 PM 44.6 °F 37.8 °F 8.6 °F 23% 29.82 in 10.0 mi WSW 15.0 mph 21.9 mph N/A   Scattered Clouds
7:35 PM 44.6 °F 38.1 °F 12.2 °F 27% 29.82 in 10.0 mi WSW 13.8 mph - N/A   Scattered Clouds
7:55 PM 42.8 °F 37.5 °F 12.2 °F 29% 29.84 in 10.0 mi WSW 9.2 mph - N/A   Mostly Cloudy
8:15 PM 41.0 °F 35.2 °F 14.0 °F 33% 29.85 in 10.0 mi NNW 9.2 mph 16.1 mph N/A   Mostly Cloudy
8:35 PM 39.2 °F 33.0 °F 19.4 °F 45% 29.85 in 10.0 mi North 9.2 mph - N/A   Partly Cloudy
8:55 PM 39.2 °F 33.6 °F 19.4 °F 45% 29.86 in 10.0 mi North 8.1 mph - N/A   Mostly Cloudy
9:15 PM 37.4 °F 32.8 °F 19.4 °F 48% 29.87 in 10.0 mi NNE 5.8 mph - N/A   Scattered Clouds
9:35 PM 35.6 °F 29.9 °F 19.4 °F 52% 29.87 in 10.0 mi North 6.9 mph - N/A   Clear
9:55 PM 37.4 °F 30.3 °F 21.2 °F 52% 29.88 in 10.0 mi North 10.4 mph - N/A   Clear
10:15 PM 35.6 °F 29.2 °F 19.4 °F 52% 29.89 in 10.0 mi NNE 8.1 mph - N/A   Partly Cloudy
10:35 PM 35.6 °F 29.9 °F 19.4 °F 52% 29.90 in 10.0 mi North 6.9 mph - N/A   Mostly Cloudy
10:55 PM 35.6 °F 28.6 °F 21.2 °F 56% 29.91 in 10.0 mi North 9.2 mph - N/A   Partly Cloudy
11:15 PM 35.6 °F 29.2 °F 21.2 °F 56% 29.91 in 10.0 mi North 8.1 mph - N/A   Clear
11:35 PM 32.0 °F 24.2 °F 19.4 °F 60% 29.91 in 10.0 mi North 9.2 mph - N/A   Clear
11:55 PM 32.0 °F 24.8 °F 19.4 °F 60% 29.91 in 10.0 mi North 8.1 mph - N/A   Clear